Total_Precipitation_Accumulation
0.05 0.02 0.04 0.03 0.06 0.08 0.09 0.09 0.11 0.11 0.08 0.09 0.12 0.15 0.14 0.10 0.08 0.07 0.07 0.09 0.12 0.16 0.18 0.19 0.22 0.24 0.23 0.20 0.14 0.10 0.07 0.07 0.06 0.08 0.12 0.17 0.22 0.20 0.19 0.19 0.30 0.34 0.15
0.05 0.02 0.03 0.03 0.05 0.07 0.08 0.09 0.09 0.09 0.07 0.08 0.10 0.11 0.11 0.10 0.09 0.09 0.08 0.09 0.12 0.15 0.17 0.16 0.17 0.20 0.18 0.12 0.09 0.06 0.05 0.08 0.13 0.19 0.24 0.26 0.32 0.27 0.23 0.20 0.36 0.47 0.23
0.05 0.02 0.02 0.04 0.04 0.06 0.07 0.08 0.09 0.08 0.08 0.08 0.09 0.09 0.10 0.09 0.09 0.09 0.09 0.12 0.18 0.22 0.20 0.18 0.18 0.19 0.17 0.11 0.08 0.06 0.07 0.13 0.23 0.38 0.62 0.60 0.53 0.39 0.29 0.22 0.23 0.21 0.24
0.05 0.02 0.02 0.03 0.04 0.05 0.05 0.08 0.10 0.10 0.08 0.08 0.09 0.09 0.09 0.09 0.09 0.09 0.10 0.13 0.20 0.25 0.24 0.22 0.20 0.19 0.16 0.11 0.09 0.08 0.11 0.19 0.34 0.60 1.07 0.87 0.69 0.54 0.40 0.29 0.25 0.23 0.27
0.06 0.03 0.02 0.03 0.04 0.05 0.05 0.06 0.10 0.11 0.09 0.09 0.09 0.09 0.09 0.09 0.09 0.11 0.12 0.13 0.16 0.20 0.19 0.15 0.13 0.13 0.14 0.10 0.09 0.11 0.17 0.30 0.51 0.85 1.30 1.28 1.10 0.74 0.44 0.32 0.34 0.34 0.36
0.08 0.04 0.03 0.04 0.05 0.07 0.08 0.08 0.10 0.10 0.10 0.11 0.11 0.13 0.13 0.13 0.12 0.14 0.17 0.18 0.17 0.18 0.16 0.14 0.12 0.12 0.13 0.09 0.09 0.16 0.26 0.44 0.59 0.96 1.31 1.32 1.00 0.72 0.51 0.43 0.42 0.42 0.41
0.15 0.07 0.04 0.05 0.07 0.10 0.12 0.14 0.16 0.16 0.15 0.16 0.18 0.19 0.18 0.16 0.17 0.18 0.19 0.20 0.19 0.19 0.17 0.15 0.16 0.15 0.12 0.10 0.11 0.17 0.29 0.46 0.66 1.29 1.37 1.31 1.09 0.77 0.58 0.49 0.43 0.40 0.39
0.20 0.11 0.08 0.07 0.09 0.15 0.19 0.21 0.23 0.20 0.18 0.19 0.21 0.23 0.20 0.17 0.16 0.16 0.17 0.18 0.19 0.22 0.21 0.15 0.11 0.08 0.07 0.09 0.10 0.15 0.26 0.35 0.54 1.01 1.24 1.09 0.85 0.65 0.56 0.43 0.37 0.33 0.33
0.33 0.17 0.13 0.10 0.10 0.18 0.26 0.24 0.23 0.21 0.21 0.23 0.27 0.29 0.24 0.19 0.16 0.15 0.17 0.18 0.18 0.18 0.15 0.09 0.06 0.04 0.04 0.05 0.07 0.11 0.22 0.33 0.52 0.83 0.92 0.91 0.72 0.58 0.51 0.42 0.33 0.29 0.30
0.48 0.30 0.23 0.22 0.20 0.21 0.23 0.25 0.26 0.25 0.26 0.27 0.27 0.25 0.21 0.16 0.15 0.15 0.15 0.15 0.15 0.15 0.15 0.11 0.07 0.05 0.05 0.05 0.07 0.10 0.18 0.25 0.41 0.69 1.09 1.09 0.73 0.69 0.61 0.47 0.38 0.33 0.29
0.51 0.45 0.40 0.35 0.32 0.30 0.26 0.23 0.26 0.24 0.25 0.23 0.20 0.18 0.17 0.19 0.25 0.24 0.19 0.18 0.19 0.19 0.16 0.12 0.10 0.08 0.06 0.06 0.10 0.13 0.14 0.22 0.52 0.95 1.30 1.13 0.80 0.80 0.71 0.59 0.47 0.42 0.36
0.72 0.66 0.62 0.62 0.57 0.51 0.46 0.44 0.41 0.35 0.31 0.25 0.28 0.24 0.25 0.48 0.57 0.49 0.48 0.36 0.30 0.25 0.18 0.16 0.14 0.11 0.10 0.11 0.15 0.15 0.18 0.31 0.71 1.28 1.24 0.79 0.85 0.95 0.87 0.76 0.67 0.59 0.54
1.08 0.79 0.71 0.82 0.83 0.90 0.96 0.76 0.72 0.72 0.61 0.47 0.60 0.58 0.59 0.74 0.69 0.69 0.73 0.58 0.45 0.37 0.33 0.34 0.23 0.19 0.19 0.25 0.29 0.26 0.32 0.42 0.62 1.00 1.02 0.86 0.95 1.08 1.11 0.96 0.81 0.72 0.70
1.37 1.13 0.89 0.84 0.84 0.97 1.10 1.03 0.99 0.96 0.89 0.80 0.85 0.73 0.80 0.91 1.00 1.08 1.21 1.04 0.92 0.81 0.75 0.63 0.54 0.40 0.38 0.39 0.41 0.44 0.52 0.55 0.73 0.94 0.97 0.82 0.82 1.06 1.32 1.20 1.01 0.91 0.89
1.68 1.48 1.24 1.03 0.99 1.09 1.22 1.25 1.21 1.18 1.13 1.17 1.24 1.07 1.07 1.02 1.11 1.38 1.43 1.56 1.32 1.27 1.16 1.01 0.84 0.76 0.66 0.59 0.56 0.60 0.68 0.69 0.76 0.88 0.90 0.86 0.85 1.02 1.32 1.41 1.29 1.23 1.18
2.12 1.75 1.52 1.36 1.20 1.12 1.14 1.22 1.23 1.21 1.32 1.41 1.54 1.45 1.41 1.40 1.51 1.84 1.92 1.84 1.64 1.65 1.72 1.69 1.48 1.24 1.04 0.97 0.89 0.88 0.93 0.97 1.05 1.07 1.11 1.03 0.92 0.99 1.24 1.43 1.50 1.54 1.46
2.16 2.05 1.87 1.72 1.57 1.32 1.19 1.29 1.39 1.33 1.37 1.45 1.67 1.78 1.75 1.75 1.97 2.03 2.28 2.24 2.04 1.96 1.90 1.83 1.92 1.88 1.56 1.33 1.20 1.15 1.24 1.26 1.26 1.31 1.40 1.42 1.22 1.11 1.15 1.29 1.41 1.45 1.47
2.32 2.03 1.93 1.70 1.51 1.57 1.50 1.60 1.65 1.76 1.88 1.85 1.91 2.20 2.30 2.28 2.32 2.34 2.35 2.34 2.25 2.20 2.35 2.40 2.29 2.24 2.14 1.89 1.68 1.56 1.52 1.57 1.45 1.44 1.44 1.55 1.62 1.36 1.13 1.10 1.14 1.21 1.38
1.79 1.79 1.83 1.78 1.62 1.57 1.74 2.00 2.12 2.32 2.60 2.76 2.75 2.95 2.91 2.75 2.72 2.80 2.83 2.84 2.69 2.71 2.64 2.52 2.66 2.56 2.47 2.24 1.88 1.72 1.58 1.60 1.51 1.35 1.34 1.46 1.53 1.41 1.28 1.11 1.06 1.15 1.35
1.53 1.60 1.72 1.90 1.96 1.86 1.90 2.12 2.47 2.69 2.91 3.30 3.39 3.43 3.46 3.50 3.47 3.47 3.40 3.37 3.22 3.09 2.95 2.88 2.81 2.58 2.43 2.19 1.82 1.66 1.51 1.38 1.32 1.32 1.19 1.18 1.20 1.11 1.14 1.12 1.10 1.06 1.20
1.78 1.96 1.88 1.95 2.14 2.29 2.53 2.55 2.74 3.10 3.50 3.73 3.93 4.05 4.04 3.97 3.95 3.76 3.62 3.64 3.45 3.26 3.06 2.91 2.78 2.67 2.37 2.13 2.05 1.79 1.45 1.26 1.16 1.08 1.07 1.04 0.98 0.96 1.04 1.05 1.00 0.96 1.01
1.85 2.03 2.12 2.18 2.51 2.98 3.37 3.80 4.21 4.50 4.50 4.65 4.70 4.68 4.55 4.41 4.29 4.09 4.02 3.87 3.61 3.41 3.17 2.91 2.73 2.67 2.45 2.25 2.22 2.15 1.72 1.37 1.08 0.84 0.86 0.88 0.86 0.86 0.86 0.84 0.81 0.80 0.85
1.85 2.04 2.18 2.46 3.10 3.89 4.28 4.60 5.15 5.47 5.29 5.08 4.86 4.78 4.69 4.67 4.66 4.47 4.33 4.04 3.76 3.46 3.18 2.91 2.70 2.58 2.48 2.34 2.16 2.23 1.99 1.62 1.23 0.95 0.81 0.76 0.78 0.84 0.83 0.79 0.75 0.74 0.77
2.05 2.14 2.31 2.80 3.54 4.20 4.68 5.24 5.77 5.99 6.01 5.85 5.37 4.93 4.49 4.15 3.97 3.88 3.81 3.63 3.38 3.07 2.86 2.63 2.43 2.31 2.38 2.27 2.13 1.94 1.80 1.58 1.40 1.16 0.92 0.81 0.79 0.82 0.85 0.82 0.79 0.78 0.80
1.82 2.19 2.44 2.97 3.65 4.34 5.03 5.70 6.08 6.29 6.26 5.84 5.06 4.33 3.88 3.57 3.30 3.09 2.97 2.85 2.70 2.54 2.38 2.27 2.18 2.05 1.99 1.90 1.79 1.70 1.61 1.49 1.29 1.14 1.01 0.89 0.87 0.88 0.90 0.89 0.90 0.88 0.85
1.67 1.97 2.39 2.71 3.34 4.03 4.62 5.13 5.28 5.42 5.36 4.94 4.48 3.99 3.60 3.16 2.67 2.32 2.13 2.01 1.91 1.83 1.82 1.81 1.79 1.73 1.66 1.61 1.55 1.46 1.38 1.36 1.29 1.22 1.09 1.00 1.01 0.97 0.93 0.90 0.88 0.89 0.88